Overview Statistics Trail Chart Weather Telemetry Raw packets
 

This is the latest recevied weather packets stored in our database for station/object OK2JCZ-6. If no packets are shown the sender has not sent any weather packets the latest 10 day(s).

<< 4 5 6 7 8 9 10 >>
Time Temp. Humidity Pressure Rain* Wind** Luminosity Snow
1788635306 16.11° C 41% 1021.4 hPa 0 mm - - -
1788635004 16.67° C 41% 1021.3 hPa 0 mm - - -
1788634704 16.67° C 41% 1021.2 hPa 0 mm - - -
1788634404 17.22° C 41% 1021 hPa 0 mm - - -
1788633804 17.78° C 41% 1020.7 hPa 0 mm - - -
1788633504 17.78° C 41% 1020.7 hPa 0 mm - - -
1788632304 17.78° C 40% 1020.3 hPa 0 mm - - -
1788632004 18.33° C 41% 1020.3 hPa 0 mm - - -
1788631704 18.33° C 41% 1020.2 hPa 0 mm - - -
1788631404 18.89° C 40% 1020.1 hPa 0 mm - - -
1788631104 18.89° C 40% 1020 hPa 0 mm - - -
1788630804 18.89° C 40% 1020 hPa 0 mm - - -
1788630504 18.89° C 40% 1019.9 hPa 0 mm - - -
1788630204 18.89° C 39% 1019.8 hPa 0 mm - - -
1788629904 18.89° C 39% 1019.7 hPa 0 mm - - -
1788629604 19.44° C 39% 1019.6 hPa 0 mm - - -
1788628104 20° C 37% 1019.4 hPa 0 mm - - -
1788627804 20.56° C 37% 1019.3 hPa 0 mm - - -
1788627504 20.56° C 36% 1019.3 hPa 0 mm - - -
1788627206 21.11° C 36% 1019.2 hPa 0 mm - - -
1788626604 21.11° C 35% 1019.2 hPa 0 mm - - -
1788626304 21.11° C 35% 1019.1 hPa 0 mm - - -
1788625704 21.67° C 34% 1019.1 hPa 0 mm - - -
1788625404 21.11° C 34% 1019.1 hPa 0 mm - - -
1788624504 20.56° C 36% 1019 hPa 0 mm - - -

* Rain latest hour (hover to see other rain measurements)
** Current wind speed in m/s (hover to see current wind gust speed)